TimeEDT,TemperatureF,Dew PointF,Humidity,Sea Level PressureIn,VisibilityMPH,Wind Direction,Wind SpeedMPH,Gust SpeedMPH,PrecipitationIn,Events,Conditions,WindDirDegrees,DateUTC
12:45 AM,78.8,75.2,89,30.00,10.0,South,11.5,-,0.00,,Mostly Cloudy,170,2012-10-03 04:45:00
12:53 AM,78.1,75.0,90,30.01,10.0,South,10.4,-,0.00,,Mostly Cloudy,180,2012-10-03 04:53:00
1:53 AM,78.1,73.9,87,30.01,10.0,South,12.7,-,N/A,,Clear,190,2012-10-03 05:53:00
2:53 AM,78.1,73.9,87,30.00,10.0,SSW,10.4,-,N/A,,Partly Cloudy,210,2012-10-03 06:53:00
3:53 AM,77.0,73.9,90,30.01,10.0,South,16.1,-,0.01,Rain,Light Rain,180,2012-10-03 07:53:00
4:53 AM,77.0,75.0,94,30.01,9.0,SW,4.6,-,0.05,Rain,Light Rain,220,2012-10-03 08:53:00
5:53 AM,78.1,73.9,87,30.03,10.0,SSE,5.8,-,0.00,,Overcast,150,2012-10-03 09:53:00
6:53 AM,77.0,73.9,90,30.04,6.0,SSE,5.8,-,0.10,Rain,Light Rain,160,2012-10-03 10:53:00
7:33 AM,77.0,73.4,89,30.04,10.0,SE,4.6,-,0.02,,Overcast,130,2012-10-03 11:33:00
7:53 AM,78.1,73.9,87,30.05,10.0,ESE,6.9,-,0.02,,Mostly Cloudy,110,2012-10-03 11:53:00
8:41 AM,78.8,75.2,89,30.06,9.0,East,4.6,-,0.01,Rain-Thunderstorm,Light Thunderstorms and Rain,100,2012-10-03 12:41:00
8:53 AM,77.0,75.0,94,30.09,1.0,SSE,3.5,-,0.11,Rain-Thunderstorm,Heavy Thunderstorms and Rain,160,2012-10-03 12:53:00
9:00 AM,77.0,75.2,94,30.09,3.0,South,12.7,-,0.01,Rain-Thunderstorm,Light Thunderstorms and Rain,170,2012-10-03 13:00:00
9:14 AM,77.0,75.2,94,30.09,7.0,SW,8.1,19.6,0.02,Rain,Light Rain,230,2012-10-03 13:14:00
9:45 AM,78.8,75.2,89,30.08,10.0,South,13.8,-,0.03,,Mostly Cloudy,170,2012-10-03 13:45:00
9:53 AM,78.1,75.0,90,30.09,10.0,South,17.3,-,0.03,Rain,Light Rain,180,2012-10-03 13:53:00
10:53 AM,79.0,75.0,88,30.09,10.0,SSE,8.1,-,0.05,,Scattered Clouds,160,2012-10-03 14:53:00
11:42 AM,80.6,75.2,84,30.10,10.0,SE,6.9,-,N/A,,Mostly Cloudy,130,2012-10-03 15:42:00
11:53 AM,80.1,75.9,87,30.09,10.0,ESE,4.6,-,N/A,,Overcast,120,2012-10-03 15:53:00
12:13 PM,80.6,77.0,89,30.09,10.0,SE,5.8,-,N/A,,Overcast,140,2012-10-03 16:13:00
12:43 PM,80.6,77.0,89,30.10,10.0,SSE,3.5,-,N/A,,Mostly Cloudy,150,2012-10-03 16:43:00
12:53 PM,82.0,77.0,85,30.10,10.0,SSE,3.5,-,N/A,,Partly Cloudy,150,2012-10-03 16:53:00
1:23 PM,78.8,73.4,83,30.10,9.0,West,20.7,29.9,0.00,Rain,Light Rain,270,2012-10-03 17:23:00
1:40 PM,75.2,73.4,94,30.09,10.0,West,15.0,21.9,0.00,Rain,Light Rain,270,2012-10-03 17:40:00
1:53 PM,77.0,73.9,90,30.09,10.0,West,10.4,-,0.00,,Mostly Cloudy,270,2012-10-03 17:53:00
2:04 PM,78.8,75.2,89,30.09,10.0,West,11.5,-,N/A,,Overcast,270,2012-10-03 18:04:00
2:18 PM,78.8,75.2,89,30.09,10.0,West,12.7,-,N/A,,Mostly Cloudy,270,2012-10-03 18:18:00
2:53 PM,78.1,75.9,93,30.09,7.0,West,10.4,-,0.01,Rain,Light Rain,280,2012-10-03 18:53:00
3:11 PM,77.0,73.4,89,30.08,9.0,WNW,11.5,18.4,0.00,Rain,Light Rain,290,2012-10-03 19:11:00
4:53 PM,80.1,73.9,81,30.10,10.0,West,12.7,-,N/A,,Mostly Cloudy,270,2012-10-03 20:53:00
5:53 PM,79.0,73.9,84,30.09,9.0,SW,5.8,-,0.00,Rain,Light Rain,230,2012-10-03 21:53:00
6:53 PM,79.0,73.9,84,30.09,10.0,WSW,4.6,-,0.00,,Clear,240,2012-10-03 22:53:00
7:53 PM,78.1,73.9,87,30.11,10.0,SSW,3.5,-,N/A,,Partly Cloudy,210,2012-10-03 23:53:00
8:53 PM,80.1,75.0,85,30.11,10.0,Calm,Calm,-,N/A,,Clear,0,2012-10-04 00:53:00
9:53 PM,79.0,75.0,88,30.14,10.0,ESE,6.9,-,N/A,,Clear,120,2012-10-04 01:53:00
10:53 PM,79.0,75.0,88,30.14,10.0,SE,8.1,-,N/A,,Clear,130,2012-10-04 02:53:00
11:53 PM,78.1,75.0,90,30.15,10.0,ESE,13.8,-,N/A,,Clear,120,2012-10-04 03:53:00